C/2023 K1 ( ATLAS )

Japanese version
Home page
Updated on April 13, 2024

---------------------------------------------------------------------

* Profile

Discovery Date May 27, 2023
Magnitude 18.6 mag
Discoverer Asteroid Terrestrial-Impact Last Alert System (ATLAS) search program

* Pictures

* Orbital Elements

Epoch 2024 Mar. 31.0 TT = JDT 2460400.5
T 2023 Sept. 7.72555 TT                                 Rudenko
q   2.0394168            (2000.0)            P               Q
z  +0.0013531      Peri.  337.46063     -0.47086001     -0.75134651
 +/-0.0000005      Node   223.70567     -0.67241516     -0.03361230
e   0.9972405      Incl.  137.99850     -0.57109430     +0.65905132
>From 212 observations 2023 May 27-2024 Mar. 19, mean residual 0".7.

* Magnitudes Graph

        m1 = -2.5 + 5 log d + 50 log r  [   ,-45]  (             - 2023 July 24)
        m1 =  4.0 + 5 log d + 30 log r  [-45,   ]  (2023 July 24 -             )

---------------------------------------------------------------------

The orbital elements are published on M.P.E.C. 2024-F34.
The magnitudes graphs are made with Comet for Windows.

---------------------------------------------------------------------

Copyright(C) Seiichi Yoshida (comet@aerith.net). All rights reserved.